Terug naar catalogus

SDA_1674

ActiefMilitairPO
NORAD 65984·PAYLOAD·🇺🇸 United States

Gelanceerd Oct 15, 2025 vanaf Vandenberg Space Force Base

Loading…

Volgende Passages (komende 24 uur)

TLE

VersSource: Space-Track

Epoch: Sep 14, 2026, 14:56 UTC

1 65984U 25230L   26257.62225938  .00000122  00000-0  10258-3 0  9997
2 65984  81.2996 129.1926 0001710  33.2394 326.8869 13.82090036 46163

Volg SDA_1674 in realtime met AllMySat

Download on the App Store